Tracking 25963 objects as of 13-Aug-2022
HD Live streaming from Space Station
objects crossing your sky now

STARLINK-3448

Track STARLINK-3448 now!
10-day predictions
STARLINK-3448 is classified as:


NORAD ID: 51728
Int'l Code: 2022-016Q
Perigee: 545.7 km
Apogee: 547.9 km
Inclination: 53.2 °
Period: 95.4 minutes
Semi major axis: 6917 km
RCS: Unknown
Launch date: February 21, 2022
Source: United States (US)
Launch site: AIR FORCE EASTERN TEST RANGE (AFETR)
aabbcc
Your satellite tracking list
Your tracking list is empty




NASA's NSSDC Master Catalog

Two Line Element Set (TLE):
1 51728U 22016Q   22224.58334491 -.00036700  00000-0 -22973-2 0  9996
2 51728  53.2175  57.9581 0001619  65.6672 137.0363 15.08876230  1309
Source of the keplerian elements: AFSPC